Time,TemperatureF,DewpointF,PressureIn,WindDirection,WindDirectionDegrees,WindSpeedMPH,WindSpeedGustMPH,Humidity,HourlyPrecipIn,Conditions,Clouds,dailyrainin,SoftwareType,DateUTC
2013-09-13 00:01:00,73.3,68.9,29.89,West,274,1.0,2.0,86,0.00,,,0.00,VWS V13.01,2013-09-13 04:01:00,
2013-09-13 00:02:00,73.2,68.8,29.89,West,273,1.0,2.0,86,0.00,,,0.00,VWS V13.01,2013-09-13 04:02:00,
2013-09-13 00:03:00,73.2,68.8,29.89,West,274,1.0,2.0,86,0.00,,,0.00,VWS V13.01,2013-09-13 04:03:00,
2013-09-13 00:08:00,73.1,68.7,29.89,West,274,1.0,2.0,86,0.00,,,0.00,VWS V13.01,2013-09-13 04:08:00,
2013-09-13 00:13:00,73.0,68.6,29.88,West,273,0.0,2.0,86,0.00,,,0.00,VWS V13.01,2013-09-13 04:13:00,
2013-09-13 00:18:00,73.1,68.7,29.88,West,274,0.0,3.0,86,0.00,,,0.00,VWS V13.01,2013-09-13 04:18:00,
2013-09-13 00:23:00,73.2,68.8,29.88,West,273,2.0,3.0,86,0.00,,,0.00,VWS V13.01,2013-09-13 04:23:00,
2013-09-13 00:28:00,73.1,68.7,29.88,West,273,2.0,3.0,86,0.00,,,0.00,VWS V13.01,2013-09-13 04:28:00,
2013-09-13 00:33:00,73.0,68.6,29.87,West,274,2.0,2.0,86,0.00,,,0.00,VWS V13.01,2013-09-13 04:33:00,
2013-09-13 00:38:00,72.9,68.5,29.87,West,273,1.0,3.0,86,0.00,,,0.00,VWS V13.01,2013-09-13 04:38:00,
2013-09-13 00:43:00,72.8,68.4,29.87,WSW,256,2.0,3.0,86,0.00,,,0.00,VWS V13.01,2013-09-13 04:43:00,
2013-09-13 00:48:00,72.8,68.4,29.87,WSW,256,2.0,2.0,86,0.00,,,0.00,VWS V13.01,2013-09-13 04:48:00,
2013-09-13 00:53:00,72.7,68.3,29.87,WSW,256,1.0,3.0,86,0.00,,,0.00,VWS V13.01,2013-09-13 04:53:00,
2013-09-13 00:58:00,72.8,68.4,29.87,West,265,3.0,3.0,86,0.00,,,0.00,VWS V13.01,2013-09-13 04:58:00,
2013-09-13 01:03:00,73.0,68.6,29.87,West,279,2.0,4.0,86,0.00,,,0.00,VWS V13.01,2013-09-13 05:03:00,
2013-09-13 01:08:00,73.0,68.6,29.87,WNW,299,2.0,2.0,86,0.00,,,0.00,VWS V13.01,2013-09-13 05:08:00,
2013-09-13 01:13:00,73.1,68.7,29.87,WNW,296,1.0,3.0,86,0.00,,,0.00,VWS V13.01,2013-09-13 05:13:00,
2013-09-13 01:18:00,73.1,68.3,29.87,West,269,3.0,4.0,85,0.00,,,0.00,VWS V13.01,2013-09-13 05:18:00,
2013-09-13 01:23:00,73.2,68.4,29.86,West,269,2.0,4.0,85,0.00,,,0.00,VWS V13.01,2013-09-13 05:23:00,
2013-09-13 01:28:00,73.2,68.4,29.87,West,272,3.0,7.0,85,0.00,,,0.00,VWS V13.01,2013-09-13 05:28:00,
2013-09-13 01:33:00,73.1,68.3,29.87,West,270,2.0,5.0,85,0.00,,,0.00,VWS V13.01,2013-09-13 05:33:00,
2013-09-13 01:38:00,73.1,68.3,29.86,West,272,2.0,5.0,85,0.00,,,0.00,VWS V13.01,2013-09-13 05:38:00,
2013-09-13 01:43:00,73.0,68.2,29.86,West,263,2.0,5.0,85,0.00,,,0.00,VWS V13.01,2013-09-13 05:43:00,
2013-09-13 01:48:00,72.9,68.1,29.85,West,280,0.0,3.0,85,0.00,,,0.00,VWS V13.01,2013-09-13 05:48:00,
2013-09-13 01:53:00,72.8,68.0,29.85,West,280,1.0,3.0,85,0.00,,,0.00,VWS V13.01,2013-09-13 05:53:00,
2013-09-13 01:58:00,72.7,68.3,29.85,West,277,3.0,6.0,86,0.00,,,0.00,VWS V13.01,2013-09-13 05:58:00,
2013-09-13 02:03:00,72.7,68.3,29.85,West,277,2.0,4.0,86,0.00,,,0.00,VWS V13.01,2013-09-13 06:03:00,
2013-09-13 02:08:00,72.7,67.9,29.85,West,277,1.0,2.0,85,0.00,,,0.00,VWS V13.01,2013-09-13 06:08:00,
2013-09-13 02:13:00,72.6,68.2,29.85,West,277,0.0,2.0,86,0.00,,,0.00,VWS V13.01,2013-09-13 06:13:00,
2013-09-13 02:18:00,72.5,68.1,29.85,West,277,0.0,0.0,86,0.00,,,0.00,VWS V13.01,2013-09-13 06:18:00,
2013-09-13 02:23:00,72.4,68.0,29.85,West,277,1.0,2.0,86,0.00,,,0.00,VWS V13.01,2013-09-13 06:23:00,
2013-09-13 02:28:00,72.4,68.0,29.85,West,277,0.0,1.0,86,0.00,,,0.00,VWS V13.01,2013-09-13 06:28:00,
2013-09-13 02:33:00,72.4,68.0,29.85,West,277,0.0,0.0,86,0.00,,,0.00,VWS V13.01,2013-09-13 06:33:00,
2013-09-13 02:38:00,72.4,68.0,29.85,West,277,0.0,0.0,86,0.00,,FEW070,0.00,VWS V13.01,2013-09-13 06:38:00,
2013-09-13 02:43:00,72.2,68.1,29.84,West,277,0.0,0.0,87,0.00,,FEW070,0.00,VWS V13.01,2013-09-13 06:43:00,
2013-09-13 02:48:00,72.0,67.9,29.84,West,277,0.0,0.0,87,0.00,,FEW070,0.00,VWS V13.01,2013-09-13 06:48:00,
2013-09-13 02:53:00,71.8,67.7,29.84,West,277,0.0,0.0,87,0.00,,FEW070,0.00,VWS V13.01,2013-09-13 06:53:00,
2013-09-13 02:58:00,71.5,67.8,29.84,West,277,0.0,0.0,88,0.00,,FEW070,0.00,VWS V13.01,2013-09-13 06:58:00,
2013-09-13 03:03:00,71.3,67.6,29.84,West,277,0.0,0.0,88,0.00,,FEW070,0.00,VWS V13.01,2013-09-13 07:03:00,
2013-09-13 03:08:00,71.3,67.6,29.84,West,277,0.0,0.0,88,0.00,,FEW070,0.00,VWS V13.01,2013-09-13 07:08:00,
2013-09-13 03:13:00,71.2,67.8,29.84,West,277,0.0,0.0,89,0.00,,FEW070,0.00,VWS V13.01,2013-09-13 07:13:00,
2013-09-13 03:18:00,71.1,67.7,29.84,West,277,0.0,0.0,89,0.00,,FEW070,0.00,VWS V13.01,2013-09-13 07:18:00,
2013-09-13 03:23:00,71.0,67.6,29.84,West,277,0.0,0.0,89,0.00,,FEW070,0.00,VWS V13.01,2013-09-13 07:23:00,
2013-09-13 03:28:00,70.9,67.5,29.84,West,277,0.0,0.0,89,0.00,,FEW070,0.00,VWS V13.01,2013-09-13 07:28:00,
2013-09-13 03:33:00,70.8,67.4,29.84,West,277,0.0,0.0,89,0.00,,FEW070,0.00,VWS V13.01,2013-09-13 07:33:00,
2013-09-13 03:38:00,70.6,67.2,29.84,West,277,0.0,0.0,89,0.00,,SCT095,0.00,VWS V13.01,2013-09-13 07:38:00,
2013-09-13 03:43:00,70.4,67.0,29.83,West,277,0.0,0.0,89,0.00,,SCT095,0.00,VWS V13.01,2013-09-13 07:43:00,
2013-09-13 03:48:00,70.2,67.1,29.83,West,277,0.0,0.0,90,0.00,,SCT095,0.00,VWS V13.01,2013-09-13 07:48:00,
2013-09-13 03:53:00,70.0,66.9,29.83,West,277,0.0,0.0,90,0.00,,SCT095,0.00,VWS V13.01,2013-09-13 07:53:00,
2013-09-13 03:58:00,69.8,66.7,29.83,West,277,1.0,3.0,90,0.00,,SCT095,0.00,VWS V13.01,2013-09-13 07:58:00,
2013-09-13 04:03:00,69.8,67.1,29.83,West,260,1.0,3.0,91,0.00,,SCT095,0.00,VWS V13.01,2013-09-13 08:03:00,
2013-09-13 04:08:00,69.8,67.1,29.84,West,260,0.0,1.0,91,0.00,,SCT095,0.00,VWS V13.01,2013-09-13 08:08:00,
2013-09-13 04:13:00,69.7,67.0,29.84,West,260,0.0,0.0,91,0.00,,SCT095,0.00,VWS V13.01,2013-09-13 08:13:00,
2013-09-13 04:18:00,69.6,66.9,29.83,West,260,0.0,0.0,91,0.00,,SCT095,0.00,VWS V13.01,2013-09-13 08:18:00,
2013-09-13 04:23:00,69.5,66.8,29.84,West,260,2.0,3.0,91,0.00,,SCT095,0.00,VWS V13.01,2013-09-13 08:23:00,
2013-09-13 04:28:00,69.5,66.8,29.84,West,260,1.0,3.0,91,0.00,,SCT095,0.00,VWS V13.01,2013-09-13 08:28:00,
2013-09-13 04:33:00,69.5,66.8,29.84,West,260,1.0,2.0,91,0.00,,SCT095,0.00,VWS V13.01,2013-09-13 08:33:00,
2013-09-13 04:38:00,69.5,67.1,29.83,West,261,2.0,4.0,92,0.00,,,0.00,VWS V13.01,2013-09-13 08:38:00,
2013-09-13 04:43:00,69.5,67.1,29.84,West,279,2.0,4.0,92,0.00,,,0.00,VWS V13.01,2013-09-13 08:43:00,
2013-09-13 04:48:00,69.4,67.0,29.84,West,279,1.0,3.0,92,0.00,,,0.00,VWS V13.01,2013-09-13 08:48:00,
2013-09-13 04:53:00,69.3,66.9,29.83,West,276,2.0,4.0,92,0.00,,,0.00,VWS V13.01,2013-09-13 08:53:00,
2013-09-13 04:58:00,69.4,67.0,29.83,West,276,1.0,3.0,92,0.00,,,0.00,VWS V13.01,2013-09-13 08:58:00,
2013-09-13 05:03:00,69.4,67.0,29.83,West,276,2.0,4.0,92,0.00,,,0.00,VWS V13.01,2013-09-13 09:03:00,
2013-09-13 05:08:00,69.5,66.8,29.83,West,276,3.0,3.0,91,0.00,,,0.00,VWS V13.01,2013-09-13 09:08:00,
2013-09-13 05:13:00,69.5,66.8,29.83,West,276,1.0,3.0,91,0.00,,,0.00,VWS V13.01,2013-09-13 09:13:00,
2013-09-13 05:18:00,69.6,66.9,29.83,WNW,284,2.0,4.0,91,0.00,,,0.00,VWS V13.01,2013-09-13 09:18:00,
2013-09-13 05:23:00,69.7,67.0,29.83,West,274,1.0,3.0,91,0.00,,,0.00,VWS V13.01,2013-09-13 09:23:00,
2013-09-13 05:28:00,69.7,67.0,29.83,West,267,1.0,3.0,91,0.00,,,0.00,VWS V13.01,2013-09-13 09:28:00,
2013-09-13 05:34:00,69.7,67.0,29.83,West,267,1.0,3.0,91,0.00,,,0.00,VWS V13.01,2013-09-13 09:34:00,
2013-09-13 05:39:00,69.7,67.0,29.83,West,267,1.0,2.0,91,0.00,,CLR,0.00,VWS V13.01,2013-09-13 09:39:00,
2013-09-13 05:44:00,69.7,67.0,29.83,West,268,1.0,3.0,91,0.00,,CLR,0.00,VWS V13.01,2013-09-13 09:44:00,
2013-09-13 05:49:00,69.7,66.6,29.83,West,269,1.0,4.0,90,0.00,,CLR,0.00,VWS V13.01,2013-09-13 09:49:00,
2013-09-13 05:54:00,69.6,66.5,29.83,West,269,0.0,2.0,90,0.00,,CLR,0.00,VWS V13.01,2013-09-13 09:54:00,
2013-09-13 05:59:00,69.6,66.5,29.83,West,269,1.0,2.0,90,0.00,,CLR,0.00,VWS V13.01,2013-09-13 09:59:00,
2013-09-13 06:04:00,69.4,66.7,29.83,West,269,2.0,3.0,91,0.00,,CLR,0.00,VWS V13.01,2013-09-13 10:04:00,
2013-09-13 06:09:00,69.4,66.7,29.83,West,276,2.0,3.0,91,0.00,,CLR,0.00,VWS V13.01,2013-09-13 10:09:00,
2013-09-13 06:14:00,69.4,66.7,29.83,WNW,291,2.0,3.0,91,0.00,,CLR,0.00,VWS V13.01,2013-09-13 10:14:00,
2013-09-13 06:19:00,69.5,66.8,29.83,West,275,2.0,4.0,91,0.00,,CLR,0.00,VWS V13.01,2013-09-13 10:19:00,
2013-09-13 06:24:00,69.9,67.2,29.83,WNW,291,1.0,5.0,91,0.00,,CLR,0.00,VWS V13.01,2013-09-13 10:24:00,
2013-09-13 06:29:00,70.2,67.1,29.83,West,281,2.0,5.0,90,0.00,,CLR,0.00,VWS V13.01,2013-09-13 10:29:00,
2013-09-13 06:34:00,70.3,66.9,29.83,West,281,2.0,5.0,89,0.00,,CLR,0.00,VWS V13.01,2013-09-13 10:34:00,
2013-09-13 06:39:00,70.3,66.9,29.83,West,279,2.0,4.0,89,0.00,,,0.00,VWS V13.01,2013-09-13 10:39:00,
2013-09-13 06:44:00,70.3,66.9,29.83,WNW,285,3.0,3.0,89,0.00,,,0.00,VWS V13.01,2013-09-13 10:44:00,
2013-09-13 06:49:00,70.3,66.9,29.83,WNW,285,0.0,2.0,89,0.00,,,0.00,VWS V13.01,2013-09-13 10:49:00,
2013-09-13 06:54:00,70.3,66.9,29.84,WNW,285,0.0,0.0,89,0.00,,,0.00,VWS V13.01,2013-09-13 10:54:00,
2013-09-13 06:59:00,70.2,66.8,29.84,WNW,285,0.0,0.0,89,0.00,,,0.00,VWS V13.01,2013-09-13 10:59:00,
2013-09-13 07:04:00,69.9,66.5,29.85,WNW,285,0.0,0.0,89,0.00,,,0.00,VWS V13.01,2013-09-13 11:04:00,
2013-09-13 07:09:00,69.9,66.5,29.85,WNW,285,0.0,0.0,89,0.00,,,0.00,VWS V13.01,2013-09-13 11:09:00,
2013-09-13 07:14:00,69.7,66.3,29.85,WNW,284,0.0,0.0,89,0.00,,,0.00,VWS V13.01,2013-09-13 11:14:00,
2013-09-13 07:19:00,69.7,66.6,29.85,WNW,285,0.0,0.0,90,0.00,,,0.00,VWS V13.01,2013-09-13 11:19:00,
2013-09-13 07:24:00,69.6,66.5,29.85,WNW,286,2.0,3.0,90,0.00,,,0.00,VWS V13.01,2013-09-13 11:24:00,
2013-09-13 07:29:00,69.8,66.4,29.85,WNW,286,1.0,3.0,89,0.00,,,0.00,VWS V13.01,2013-09-13 11:29:00,
2013-09-13 07:34:00,70.1,66.4,29.85,WNW,286,2.0,5.0,88,0.00,,,0.00,VWS V13.01,2013-09-13 11:34:00,
2013-09-13 07:39:00,70.4,66.7,29.85,WNW,296,2.0,4.0,88,0.00,,,0.00,VWS V13.01,2013-09-13 11:39:00,
2013-09-13 07:44:00,70.6,66.6,29.85,West,277,5.0,5.0,87,0.00,,,0.00,VWS V13.01,2013-09-13 11:44:00,
2013-09-13 07:49:00,70.7,66.7,29.85,WNW,286,2.0,5.0,87,0.00,,,0.00,VWS V13.01,2013-09-13 11:49:00,
2013-09-13 07:54:00,70.8,66.7,29.85,WNW,290,3.0,6.0,87,0.00,,,0.00,VWS V13.01,2013-09-13 11:54:00,
2013-09-13 07:59:00,70.9,66.8,29.85,WNW,288,4.0,5.0,87,0.00,,,0.00,VWS V13.01,2013-09-13 11:59:00,
2013-09-13 08:04:00,71.1,67.0,29.85,WNW,292,3.0,5.0,87,0.00,,,0.00,VWS V13.01,2013-09-13 12:04:00,
2013-09-13 08:09:00,71.3,66.9,29.85,WNW,295,5.0,8.0,86,0.00,,,0.00,VWS V13.01,2013-09-13 12:09:00,
2013-09-13 08:14:00,71.7,67.3,29.85,WNW,286,3.0,7.0,86,0.00,,,0.00,VWS V13.01,2013-09-13 12:14:00,
2013-09-13 08:19:00,72.0,67.6,29.85,WNW,285,2.0,7.0,86,0.00,,,0.00,VWS V13.01,2013-09-13 12:19:00,
2013-09-13 08:24:00,72.1,67.3,29.85,West,277,2.0,6.0,85,0.00,,,0.00,VWS V13.01,2013-09-13 12:24:00,
2013-09-13 08:29:00,72.4,68.0,29.85,West,275,3.0,5.0,86,0.00,,,0.00,VWS V13.01,2013-09-13 12:29:00,
2013-09-13 08:34:00,72.8,68.0,29.85,WNW,300,3.0,5.0,85,0.00,,,0.00,VWS V13.01,2013-09-13 12:34:00,
2013-09-13 08:39:00,73.2,68.1,29.85,NW,322,3.0,6.0,84,0.00,,,0.00,VWS V13.01,2013-09-13 12:39:00,
2013-09-13 08:44:00,73.5,68.0,29.84,WNW,300,2.0,7.0,83,0.00,,,0.00,VWS V13.01,2013-09-13 12:44:00,
2013-09-13 08:49:00,73.7,68.2,29.85,NW,313,2.0,6.0,83,0.00,,,0.00,VWS V13.01,2013-09-13 12:49:00,
2013-09-13 08:54:00,73.9,68.4,29.85,WNW,294,2.0,7.0,83,0.00,,,0.00,VWS V13.01,2013-09-13 12:54:00,
2013-09-13 08:59:00,74.0,68.5,29.85,WNW,298,12.0,12.0,83,0.00,,,0.00,VWS V13.01,2013-09-13 12:59:00,
2013-09-13 09:04:00,74.2,68.7,29.85,WNW,295,3.0,6.0,83,0.00,,,0.00,VWS V13.01,2013-09-13 13:04:00,
2013-09-13 09:09:00,74.3,68.4,29.85,West,275,4.0,9.0,82,0.00,,,0.00,VWS V13.01,2013-09-13 13:09:00,
2013-09-13 09:14:00,74.4,68.6,29.85,WNW,293,3.0,6.0,82,0.00,,,0.00,VWS V13.01,2013-09-13 13:14:00,
2013-09-13 09:19:00,74.5,68.7,29.85,NNW,345,5.0,7.0,82,0.00,,,0.00,VWS V13.01,2013-09-13 13:19:00,
2013-09-13 09:24:00,74.7,68.8,29.85,NW,304,6.0,11.0,82,0.00,,,0.00,VWS V13.01,2013-09-13 13:24:00,
2013-09-13 09:29:00,75.1,69.2,29.85,NNW,329,5.0,6.0,82,0.00,,,0.00,VWS V13.01,2013-09-13 13:29:00,
2013-09-13 09:34:00,75.2,69.0,29.85,NW,305,3.0,7.0,81,0.00,,,0.00,VWS V13.01,2013-09-13 13:34:00,
2013-09-13 09:39:00,75.3,69.1,29.85,WNW,299,2.0,6.0,81,0.00,,CLR,0.00,VWS V13.01,2013-09-13 13:39:00,
2013-09-13 09:44:00,75.4,69.2,29.85,North,10,4.0,11.0,81,0.00,,CLR,0.00,VWS V13.01,2013-09-13 13:44:00,
2013-09-13 09:49:00,75.2,69.0,29.85,NW,319,1.0,10.0,81,0.00,,CLR,0.00,VWS V13.01,2013-09-13 13:49:00,
2013-09-13 09:54:00,75.3,69.1,29.85,NNE,14,3.0,12.0,81,0.00,,CLR,0.00,VWS V13.01,2013-09-13 13:54:00,
2013-09-13 09:59:00,75.5,69.3,29.85,North,360,4.0,9.0,81,0.00,,CLR,0.00,VWS V13.01,2013-09-13 13:59:00,
2013-09-13 10:04:00,75.8,69.2,29.85,WNW,302,3.0,9.0,80,0.00,,CLR,0.00,VWS V13.01,2013-09-13 14:04:00,
2013-09-13 10:09:00,76.1,69.5,29.85,NW,317,3.0,7.0,80,0.00,,CLR,0.00,VWS V13.01,2013-09-13 14:09:00,
2013-09-13 10:14:00,76.1,69.5,29.86,NNW,338,4.0,12.0,80,0.00,,CLR,0.00,VWS V13.01,2013-09-13 14:14:00,
2013-09-13 10:19:00,76.2,69.6,29.86,NNW,345,3.0,10.0,80,0.00,,CLR,0.00,VWS V13.01,2013-09-13 14:19:00,
2013-09-13 10:24:00,76.6,70.0,29.86,NW,306,9.0,11.0,80,0.00,,CLR,0.00,VWS V13.01,2013-09-13 14:24:00,
2013-09-13 10:29:00,76.9,69.9,29.85,NE,49,6.0,12.0,79,0.00,,CLR,0.00,VWS V13.01,2013-09-13 14:29:00,
2013-09-13 10:34:00,77.0,70.0,29.86,NNE,32,2.0,12.0,79,0.00,,CLR,0.00,VWS V13.01,2013-09-13 14:34:00,
2013-09-13 10:39:00,77.3,69.9,29.86,NE,51,2.0,11.0,78,0.00,,CLR,0.00,VWS V13.01,2013-09-13 14:39:00,
2013-09-13 10:44:00,77.5,70.1,29.85,North,355,5.0,8.0,78,0.00,,CLR,0.00,VWS V13.01,2013-09-13 14:44:00,
2013-09-13 10:49:00,77.8,70.0,29.85,NNW,339,4.0,9.0,77,0.00,,CLR,0.00,VWS V13.01,2013-09-13 14:49:00,
2013-09-13 10:54:00,78.1,70.3,29.85,NNW,327,3.0,7.0,77,0.00,,CLR,0.00,VWS V13.01,2013-09-13 14:54:00,
2013-09-13 10:59:00,78.2,70.4,29.85,WNW,299,0.0,6.0,77,0.00,,CLR,0.00,VWS V13.01,2013-09-13 14:59:00,
2013-09-13 11:04:00,78.5,70.3,29.85,NW,311,10.0,11.0,76,0.00,,CLR,0.00,VWS V13.01,2013-09-13 15:04:00,
2013-09-13 11:09:00,78.5,70.3,29.85,WNW,285,8.0,9.0,76,0.00,,CLR,0.00,VWS V13.01,2013-09-13 15:09:00,
2013-09-13 11:14:00,79.1,70.9,29.85,NNW,337,5.0,7.0,76,0.00,,CLR,0.00,VWS V13.01,2013-09-13 15:14:00,
2013-09-13 11:19:00,79.3,70.3,29.86,NNE,19,4.0,7.0,74,0.00,,CLR,0.00,VWS V13.01,2013-09-13 15:19:00,
2013-09-13 11:24:00,79.3,70.7,29.86,North,350,4.0,9.0,75,0.00,,CLR,0.00,VWS V13.01,2013-09-13 15:24:00,
2013-09-13 11:29:00,79.2,69.8,29.86,North,355,6.0,6.0,73,0.00,,CLR,0.00,VWS V13.01,2013-09-13 15:29:00,
2013-09-13 11:34:00,79.3,69.9,29.86,NNW,343,2.0,9.0,73,0.00,,CLR,0.00,VWS V13.01,2013-09-13 15:34:00,
2013-09-13 11:39:00,79.6,70.2,29.85,NW,320,2.0,6.0,73,0.00,,CLR,0.00,VWS V13.01,2013-09-13 15:39:00,
2013-09-13 11:44:00,79.8,70.0,29.85,NNE,24,8.0,9.0,72,0.00,,CLR,0.00,VWS V13.01,2013-09-13 15:44:00,
2013-09-13 11:49:00,80.1,69.9,29.85,NNE,23,7.0,11.0,71,0.00,,CLR,0.00,VWS V13.01,2013-09-13 15:49:00,
2013-09-13 11:54:00,80.3,70.5,29.85,NE,40,4.0,7.0,72,0.00,,CLR,0.00,VWS V13.01,2013-09-13 15:54:00,
2013-09-13 11:59:00,80.5,70.7,29.85,NE,42,6.0,6.0,72,0.00,,CLR,0.00,VWS V13.01,2013-09-13 15:59:00,
2013-09-13 12:04:00,80.8,70.9,29.84,WNW,293,2.0,6.0,72,0.00,,CLR,0.00,VWS V13.01,2013-09-13 16:04:00,
2013-09-13 12:09:00,81.4,70.7,29.85,NW,304,10.0,11.0,70,0.00,,CLR,0.00,VWS V13.01,2013-09-13 16:09:00,
2013-09-13 12:14:00,80.9,70.2,29.84,North,355,5.0,13.0,70,0.00,,CLR,0.00,VWS V13.01,2013-09-13 16:14:00,
2013-09-13 12:19:00,80.9,69.8,29.84,West,277,10.0,12.0,69,0.00,,CLR,0.00,VWS V13.01,2013-09-13 16:19:00,
2013-09-13 12:24:00,80.9,69.8,29.84,West,279,7.0,13.0,69,0.00,,CLR,0.00,VWS V13.01,2013-09-13 16:24:00,
2013-09-13 12:29:00,80.9,69.8,29.84,NW,309,3.0,13.0,69,0.00,,CLR,0.00,VWS V13.01,2013-09-13 16:29:00,
2013-09-13 12:34:00,80.9,70.2,29.84,NW,305,6.0,7.0,70,0.00,,CLR,0.00,VWS V13.01,2013-09-13 16:34:00,
2013-09-13 12:39:00,81.0,70.3,29.84,North,360,6.0,9.0,70,0.00,,CLR,0.00,VWS V13.01,2013-09-13 16:39:00,
2013-09-13 12:44:00,81.0,70.3,29.84,NW,323,5.0,6.0,70,0.00,,CLR,0.00,VWS V13.01,2013-09-13 16:44:00,
2013-09-13 12:50:00,81.0,70.7,29.84,WNW,294,4.0,5.0,71,0.00,,CLR,0.00,VWS V13.01,2013-09-13 16:50:00,
2013-09-13 12:55:00,81.1,70.4,29.84,NW,309,6.0,14.0,70,0.00,,CLR,0.00,VWS V13.01,2013-09-13 16:55:00,
2013-09-13 13:00:00,81.0,70.3,29.84,NW,314,5.0,12.0,70,0.00,,CLR,0.00,VWS V13.01,2013-09-13 17:00:00,
2013-09-13 13:05:00,81.0,70.3,29.84,WNW,285,8.0,12.0,70,0.00,,CLR,0.00,VWS V13.01,2013-09-13 17:05:00,
2013-09-13 13:10:00,81.2,70.5,29.83,NW,312,10.0,10.0,70,0.00,,CLR,0.00,VWS V13.01,2013-09-13 17:10:00,
2013-09-13 13:15:00,81.2,70.1,29.83,WNW,286,7.0,10.0,69,0.00,,CLR,0.00,VWS V13.01,2013-09-13 17:15:00,
2013-09-13 13:20:00,81.2,70.1,29.83,NW,310,5.0,11.0,69,0.00,,CLR,0.00,VWS V13.01,2013-09-13 17:20:00,
2013-09-13 13:25:00,81.4,70.3,29.83,NNW,337,1.0,7.0,69,0.00,,CLR,0.00,VWS V13.01,2013-09-13 17:25:00,
2013-09-13 13:30:00,81.4,70.3,29.83,NW,307,4.0,12.0,69,0.00,,CLR,0.00,VWS V13.01,2013-09-13 17:30:00,
2013-09-13 13:35:00,81.6,70.0,29.82,WNW,284,10.0,10.0,68,0.00,,CLR,0.00,VWS V13.01,2013-09-13 17:35:00,
2013-09-13 13:40:00,81.8,70.6,29.82,WNW,292,7.0,12.0,69,0.00,,CLR,0.00,VWS V13.01,2013-09-13 17:40:00,
2013-09-13 13:45:00,82.1,70.1,29.82,North,11,6.0,13.0,67,0.00,,CLR,0.00,VWS V13.01,2013-09-13 17:45:00,
2013-09-13 13:50:00,82.2,70.2,29.82,NNW,342,5.0,10.0,67,0.00,,CLR,0.00,VWS V13.01,2013-09-13 17:50:00,
2013-09-13 13:55:00,82.4,70.3,29.82,NW,312,4.0,11.0,67,0.00,,CLR,0.00,VWS V13.01,2013-09-13 17:55:00,
2013-09-13 14:00:00,82.2,70.6,29.82,NW,304,10.0,15.0,68,0.00,,CLR,0.00,VWS V13.01,2013-09-13 18:00:00,
2013-09-13 14:05:00,82.3,69.8,29.83,NNW,341,3.0,16.0,66,0.00,,CLR,0.00,VWS V13.01,2013-09-13 18:05:00,
2013-09-13 14:10:00,82.6,70.1,29.82,NW,307,12.0,13.0,66,0.00,,CLR,0.00,VWS V13.01,2013-09-13 18:10:00,
2013-09-13 14:15:00,82.7,69.3,29.82,NW,315,4.0,14.0,64,0.00,,CLR,0.00,VWS V13.01,2013-09-13 18:15:00,
2013-09-13 14:20:00,82.8,69.4,29.82,NW,304,3.0,15.0,64,0.00,,CLR,0.00,VWS V13.01,2013-09-13 18:20:00,
2013-09-13 14:25:00,82.6,69.2,29.82,NW,314,15.0,15.0,64,0.00,,CLR,0.00,VWS V13.01,2013-09-13 18:25:00,
2013-09-13 14:30:00,82.5,69.1,29.82,NNE,17,3.0,15.0,64,0.00,,CLR,0.00,VWS V13.01,2013-09-13 18:30:00,
2013-09-13 14:35:00,82.9,69.5,29.81,NNE,13,3.0,9.0,64,0.00,,CLR,0.00,VWS V13.01,2013-09-13 18:35:00,
2013-09-13 14:40:00,83.1,67.8,29.81,NW,312,15.0,15.0,60,0.00,,CLR,0.00,VWS V13.01,2013-09-13 18:40:00,
2013-09-13 14:45:00,82.6,67.8,29.81,NNW,332,6.0,16.0,61,0.00,,CLR,0.00,VWS V13.01,2013-09-13 18:45:00,
2013-09-13 14:50:00,82.7,67.9,29.81,NW,309,5.0,14.0,61,0.00,,CLR,0.00,VWS V13.01,2013-09-13 18:50:00,
2013-09-13 14:55:00,83.0,68.2,29.81,WNW,298,7.0,12.0,61,0.00,,CLR,0.00,VWS V13.01,2013-09-13 18:55:00,
2013-09-13 15:00:00,83.3,66.0,29.81,WNW,300,9.0,16.0,56,0.00,,CLR,0.00,VWS V13.01,2013-09-13 19:00:00,
2013-09-13 15:05:00,83.6,66.8,29.80,WNW,288,2.0,13.0,57,0.00,,CLR,0.00,VWS V13.01,2013-09-13 19:05:00,
2013-09-13 15:10:00,83.8,67.0,29.80,North,355,2.0,2.0,57,0.00,,CLR,0.00,VWS V13.01,2013-09-13 19:10:00,
2013-09-13 15:15:00,84.3,66.4,29.80,NW,325,6.0,6.0,55,0.00,,CLR,0.00,VWS V13.01,2013-09-13 19:15:00,
2013-09-13 15:20:00,84.1,66.2,29.80,NNW,330,3.0,14.0,55,0.00,,CLR,0.00,VWS V13.01,2013-09-13 19:20:00,
2013-09-13 15:25:00,84.4,65.9,29.80,North,355,7.0,13.0,54,0.00,,CLR,0.00,VWS V13.01,2013-09-13 19:25:00,
2013-09-13 15:30:00,84.5,65.5,29.79,West,277,8.0,12.0,53,0.00,,CLR,0.00,VWS V13.01,2013-09-13 19:30:00,
2013-09-13 15:35:00,84.6,66.1,29.79,WNW,296,7.0,13.0,54,0.00,,CLR,0.00,VWS V13.01,2013-09-13 19:35:00,
2013-09-13 15:40:00,84.3,65.9,29.79,WNW,292,6.0,11.0,54,0.00,,CLR,0.00,VWS V13.01,2013-09-13 19:40:00,
2013-09-13 15:45:00,84.1,66.7,29.79,West,266,10.0,11.0,56,0.00,,CLR,0.00,VWS V13.01,2013-09-13 19:45:00,
2013-09-13 15:50:00,84.3,65.9,29.78,West,277,5.0,6.0,54,0.00,,CLR,0.00,VWS V13.01,2013-09-13 19:50:00,
2013-09-13 15:55:00,84.4,65.9,29.78,NNW,332,0.0,0.0,54,0.00,,CLR,0.00,VWS V13.01,2013-09-13 19:55:00,
2013-09-13 16:00:00,84.3,66.4,29.78,NW,325,2.0,6.0,55,0.00,,CLR,0.00,VWS V13.01,2013-09-13 20:00:00,
2013-09-13 16:05:00,84.5,66.1,29.78,West,281,5.0,12.0,54,0.00,,CLR,0.00,VWS V13.01,2013-09-13 20:05:00,
2013-09-13 16:10:00,84.9,65.9,29.77,WNW,292,3.0,10.0,53,0.00,,CLR,0.00,VWS V13.01,2013-09-13 20:10:00,
2013-09-13 16:15:00,85.0,66.0,29.77,WSW,253,10.0,14.0,53,0.00,,CLR,0.00,VWS V13.01,2013-09-13 20:15:00,
2013-09-13 16:20:00,84.8,65.8,29.77,WNW,298,6.0,13.0,53,0.00,,CLR,0.00,VWS V13.01,2013-09-13 20:20:00,
2013-09-13 16:25:00,84.8,65.2,29.77,NW,309,4.0,5.0,52,0.00,,CLR,0.00,VWS V13.01,2013-09-13 20:25:00,
2013-09-13 16:30:00,84.9,65.9,29.76,NW,304,2.0,7.0,53,0.00,,CLR,0.00,VWS V13.01,2013-09-13 20:30:00,
2013-09-13 16:35:00,85.2,65.1,29.76,WNW,287,6.0,14.0,51,0.00,,CLR,0.00,VWS V13.01,2013-09-13 20:35:00,
2013-09-13 16:40:00,85.1,64.4,29.77,NNW,347,5.0,13.0,50,0.00,,CLR,0.00,VWS V13.01,2013-09-13 20:40:00,
2013-09-13 16:45:00,85.3,64.0,29.77,NNE,31,7.0,10.0,49,0.00,,CLR,0.00,VWS V13.01,2013-09-13 20:45:00,
2013-09-13 16:50:00,85.5,64.2,29.77,WNW,291,4.0,11.0,49,0.00,,CLR,0.00,VWS V13.01,2013-09-13 20:50:00,
2013-09-13 16:55:00,85.7,64.4,29.77,WNW,286,14.0,17.0,49,0.00,,CLR,0.00,VWS V13.01,2013-09-13 20:55:00,
2013-09-13 17:00:00,85.5,64.8,29.77,NW,321,7.0,14.0,50,0.00,,CLR,0.00,VWS V13.01,2013-09-13 21:00:00,
2013-09-13 17:05:00,85.3,64.6,29.77,WNW,294,15.0,15.0,50,0.00,,CLR,0.00,VWS V13.01,2013-09-13 21:05:00,
2013-09-13 17:10:00,85.3,64.6,29.76,NW,306,4.0,4.0,50,0.00,,CLR,0.00,VWS V13.01,2013-09-13 21:10:00,
2013-09-13 17:15:00,85.2,65.1,29.76,WNW,300,13.0,14.0,51,0.00,,CLR,0.00,VWS V13.01,2013-09-13 21:15:00,
2013-09-13 17:20:00,85.1,65.0,29.76,NNW,336,3.0,3.0,51,0.00,,CLR,0.00,VWS V13.01,2013-09-13 21:20:00,
2013-09-13 17:25:00,85.4,64.7,29.76,WNW,303,4.0,5.0,50,0.00,,CLR,0.00,VWS V13.01,2013-09-13 21:25:00,
2013-09-13 17:30:00,85.5,64.8,29.76,North,360,4.0,4.0,50,0.00,,CLR,0.00,VWS V13.01,2013-09-13 21:30:00,
2013-09-13 17:35:00,85.5,64.8,29.76,NW,323,5.0,8.0,50,0.00,,CLR,0.00,VWS V13.01,2013-09-13 21:35:00,
2013-09-13 17:40:00,85.1,65.0,29.76,NNW,340,10.0,12.0,51,0.00,,CLR,0.00,VWS V13.01,2013-09-13 21:40:00,
2013-09-13 17:45:00,84.9,64.8,29.76,North,360,6.0,7.0,51,0.00,,CLR,0.00,VWS V13.01,2013-09-13 21:45:00,
2013-09-13 17:50:00,84.9,65.3,29.76,NW,314,5.0,6.0,52,0.00,,CLR,0.00,VWS V13.01,2013-09-13 21:50:00,
2013-09-13 17:55:00,84.9,64.8,29.76,NNW,337,5.0,5.0,51,0.00,,CLR,0.00,VWS V13.01,2013-09-13 21:55:00,
2013-09-13 18:00:00,84.8,64.7,29.76,NNW,346,3.0,4.0,51,0.00,,CLR,0.00,VWS V13.01,2013-09-13 22:00:00,
2013-09-13 18:05:00,84.8,64.7,29.76,North,355,3.0,4.0,51,0.00,,CLR,0.00,VWS V13.01,2013-09-13 22:05:00,
2013-09-13 18:10:00,84.9,64.2,29.76,NW,309,6.0,10.0,50,0.00,,CLR,0.00,VWS V13.01,2013-09-13 22:10:00,
2013-09-13 18:15:00,84.7,64.6,29.76,WNW,294,5.0,5.0,51,0.00,,CLR,0.00,VWS V13.01,2013-09-13 22:15:00,
2013-09-13 18:20:00,84.6,64.5,29.76,NW,320,6.0,6.0,51,0.00,,CLR,0.00,VWS V13.01,2013-09-13 22:20:00,
2013-09-13 18:25:00,84.5,64.4,29.77,NW,313,1.0,3.0,51,0.00,,CLR,0.00,VWS V13.01,2013-09-13 22:25:00,
2013-09-13 18:30:00,84.4,64.9,29.77,NNW,329,2.0,2.0,52,0.00,,CLR,0.00,VWS V13.01,2013-09-13 22:30:00,
2013-09-13 18:35:00,84.5,65.5,29.77,NW,313,1.0,2.0,53,0.00,,CLR,0.00,VWS V13.01,2013-09-13 22:35:00,
2013-09-13 18:40:00,84.4,64.9,29.77,NNW,333,7.0,7.0,52,0.00,,CLR,0.00,VWS V13.01,2013-09-13 22:40:00,
2013-09-13 18:45:00,84.0,65.1,29.77,NNW,331,2.0,2.0,53,0.00,,CLR,0.00,VWS V13.01,2013-09-13 22:45:00,
2013-09-13 18:50:00,83.9,64.9,29.77,NW,314,2.0,2.0,53,0.00,,CLR,0.00,VWS V13.01,2013-09-13 22:50:00,
2013-09-13 18:55:00,83.7,65.3,29.77,NW,304,3.0,3.0,54,0.00,,CLR,0.00,VWS V13.01,2013-09-13 22:55:00,
2013-09-13 19:00:00,83.4,65.0,29.77,NW,305,4.0,7.0,54,0.00,,CLR,0.00,VWS V13.01,2013-09-13 23:00:00,
2013-09-13 19:05:00,82.8,65.0,29.77,NW,306,4.0,4.0,55,0.00,,CLR,0.00,VWS V13.01,2013-09-13 23:05:00,
2013-09-13 19:10:00,82.3,65.1,29.78,NW,306,3.0,3.0,56,0.00,,CLR,0.00,VWS V13.01,2013-09-13 23:10:00,
2013-09-13 19:15:00,81.9,65.2,29.78,NW,304,3.0,3.0,57,0.00,,CLR,0.00,VWS V13.01,2013-09-13 23:15:00,
2013-09-13 19:20:00,81.4,65.2,29.78,NW,316,2.0,2.0,58,0.00,,CLR,0.00,VWS V13.01,2013-09-13 23:20:00,
2013-09-13 19:25:00,80.9,65.2,29.78,WNW,302,3.0,3.0,59,0.00,,CLR,0.00,VWS V13.01,2013-09-13 23:25:00,
2013-09-13 19:30:00,80.3,65.2,29.78,NW,309,3.0,3.0,60,0.00,,CLR,0.00,VWS V13.01,2013-09-13 23:30:00,
2013-09-13 19:35:00,79.7,65.1,29.78,NW,318,2.0,2.0,61,0.00,,CLR,0.00,VWS V13.01,2013-09-13 23:35:00,
2013-09-13 19:40:00,79.2,65.1,29.78,NW,317,0.0,1.0,62,0.00,,CLR,0.00,VWS V13.01,2013-09-13 23:40:00,
2013-09-13 19:45:00,78.7,65.1,29.78,NW,322,1.0,2.0,63,0.00,,CLR,0.00,VWS V13.01,2013-09-13 23:45:00,
2013-09-13 19:50:00,78.1,64.9,29.79,NW,318,2.0,2.0,64,0.00,,CLR,0.00,VWS V13.01,2013-09-13 23:50:00,
2013-09-13 19:55:00,77.6,64.9,29.79,NW,317,1.0,2.0,65,0.00,,CLR,0.00,VWS V13.01,2013-09-13 23:55:00,
2013-09-13 20:00:00,77.1,64.4,29.79,WNW,299,2.0,2.0,65,0.00,,CLR,0.00,VWS V13.01,2013-09-14 00:00:00,
2013-09-13 20:05:00,76.8,64.6,29.79,WNW,302,2.0,2.0,66,0.00,,CLR,0.00,VWS V13.01,2013-09-14 00:05:00,
2013-09-13 20:10:00,76.5,64.3,29.79,NW,304,2.0,2.0,66,0.00,,CLR,0.00,VWS V13.01,2013-09-14 00:10:00,
2013-09-13 20:15:00,76.4,64.2,29.79,NW,319,1.0,2.0,66,0.00,,CLR,0.00,VWS V13.01,2013-09-14 00:15:00,
2013-09-13 20:20:00,76.2,64.0,29.79,NW,322,3.0,3.0,66,0.00,,CLR,0.00,VWS V13.01,2013-09-14 00:20:00,
2013-09-13 20:25:00,75.9,64.2,29.79,NW,322,2.0,3.0,67,0.00,,CLR,0.00,VWS V13.01,2013-09-14 00:25:00,
2013-09-13 20:30:00,75.5,64.2,29.80,NW,321,1.0,3.0,68,0.00,,CLR,0.00,VWS V13.01,2013-09-14 00:30:00,
2013-09-13 20:35:00,75.2,63.9,29.80,NW,321,2.0,2.0,68,0.00,,CLR,0.00,VWS V13.01,2013-09-14 00:35:00,
2013-09-13 20:40:00,74.9,64.1,29.80,NW,321,2.0,2.0,69,0.00,,CLR,0.00,VWS V13.01,2013-09-14 00:40:00,
2013-09-13 20:45:00,74.6,63.8,29.81,WNW,302,2.0,2.0,69,0.00,,CLR,0.00,VWS V13.01,2013-09-14 00:45:00,
2013-09-13 20:50:00,74.4,63.6,29.81,WNW,300,3.0,3.0,69,0.00,,CLR,0.00,VWS V13.01,2013-09-14 00:50:00,
2013-09-13 20:55:00,74.5,63.7,29.81,NW,304,2.0,3.0,69,0.00,,CLR,0.00,VWS V13.01,2013-09-14 00:55:00,
2013-09-13 21:00:00,74.5,63.3,29.81,NW,304,3.0,4.0,68,0.00,,CLR,0.00,VWS V13.01,2013-09-14 01:00:00,
2013-09-13 21:05:00,74.6,63.3,29.81,NNW,338,2.0,4.0,68,0.00,,CLR,0.00,VWS V13.01,2013-09-14 01:05:00,
2013-09-13 21:10:00,74.6,63.3,29.82,NW,326,2.0,2.0,68,0.00,,CLR,0.00,VWS V13.01,2013-09-14 01:10:00,
2013-09-13 21:15:00,74.4,63.6,29.82,WNW,302,2.0,2.0,69,0.00,,CLR,0.00,VWS V13.01,2013-09-14 01:15:00,
2013-09-13 21:20:00,74.2,63.4,29.83,NW,321,3.0,4.0,69,0.00,,CLR,0.00,VWS V13.01,2013-09-14 01:20:00,
2013-09-13 21:25:00,73.9,63.5,29.82,NW,304,2.0,2.0,70,0.00,,CLR,0.00,VWS V13.01,2013-09-14 01:25:00,
2013-09-13 21:30:00,73.6,63.2,29.83,NW,321,2.0,3.0,70,0.00,,CLR,0.00,VWS V13.01,2013-09-14 01:30:00,
2013-09-13 21:35:00,73.3,63.3,29.83,NW,307,2.0,2.0,71,0.00,,CLR,0.00,VWS V13.01,2013-09-14 01:35:00,
2013-09-13 21:40:00,73.1,63.2,29.83,NW,314,2.0,2.0,71,0.00,,CLR,0.00,VWS V13.01,2013-09-14 01:40:00,
2013-09-13 21:45:00,72.9,63.3,29.83,NW,315,1.0,2.0,72,0.00,,CLR,0.00,VWS V13.01,2013-09-14 01:45:00,
2013-09-13 21:50:00,72.6,63.5,29.83,NW,315,0.0,1.0,73,0.00,,CLR,0.00,VWS V13.01,2013-09-14 01:50:00,
2013-09-13 21:55:00,72.3,63.2,29.83,NW,315,0.0,1.0,73,0.00,,CLR,0.00,VWS V13.01,2013-09-14 01:55:00,
2013-09-13 22:00:00,72.1,63.0,29.83,NW,315,0.0,0.0,73,0.00,,CLR,0.00,VWS V13.01,2013-09-14 02:00:00,
2013-09-13 22:05:00,71.7,63.0,29.83,NW,311,1.0,2.0,74,0.00,,CLR,0.00,VWS V13.01,2013-09-14 02:05:00,
2013-09-13 22:10:00,71.4,62.7,29.83,NW,310,0.0,0.0,74,0.00,,CLR,0.00,VWS V13.01,2013-09-14 02:10:00,
2013-09-13 22:15:00,71.2,62.9,29.84,NW,311,2.0,2.0,75,0.00,,CLR,0.00,VWS V13.01,2013-09-14 02:15:00,
2013-09-13 22:20:00,71.0,62.7,29.84,NW,317,0.0,2.0,75,0.00,,CLR,0.00,VWS V13.01,2013-09-14 02:20:00,
2013-09-13 22:25:00,70.8,62.9,29.84,NNW,336,1.0,3.0,76,0.00,,CLR,0.00,VWS V13.01,2013-09-14 02:25:00,
2013-09-13 22:30:00,70.6,62.7,29.84,NW,313,0.0,0.0,76,0.00,,CLR,0.00,VWS V13.01,2013-09-14 02:30:00,
2013-09-13 22:35:00,70.4,62.5,29.84,NW,316,1.0,2.0,76,0.00,,CLR,0.00,VWS V13.01,2013-09-14 02:35:00,
2013-09-13 22:40:00,70.2,62.3,29.84,NNW,340,1.0,3.0,76,0.00,,CLR,0.00,VWS V13.01,2013-09-14 02:40:00,
2013-09-13 22:45:00,70.1,61.8,29.84,NW,317,2.0,2.0,75,0.00,,CLR,0.00,VWS V13.01,2013-09-14 02:45:00,
2013-09-13 22:50:00,70.1,61.8,29.84,NW,315,2.0,3.0,75,0.00,,CLR,0.00,VWS V13.01,2013-09-14 02:50:00,
2013-09-13 22:55:00,69.9,62.0,29.84,WNW,302,1.0,1.0,76,0.00,,CLR,0.00,VWS V13.01,2013-09-14 02:55:00,
2013-09-13 23:00:00,69.6,61.7,29.84,NNW,327,0.0,0.0,76,0.00,,CLR,0.00,VWS V13.01,2013-09-14 03:00:00,
2013-09-13 23:05:00,69.4,61.9,29.84,NNW,327,2.0,2.0,77,0.00,,CLR,0.00,VWS V13.01,2013-09-14 03:05:00,
2013-09-13 23:10:00,69.1,61.6,29.84,NW,325,0.0,2.0,77,0.00,,CLR,0.00,VWS V13.01,2013-09-14 03:10:00,
2013-09-13 23:15:00,68.9,61.8,29.84,NW,318,1.0,2.0,78,0.00,,CLR,0.00,VWS V13.01,2013-09-14 03:15:00,
2013-09-13 23:20:00,68.8,61.7,29.84,NW,318,1.0,2.0,78,0.00,,CLR,0.00,VWS V13.01,2013-09-14 03:20:00,
2013-09-13 23:25:00,68.6,61.5,29.84,NW,322,2.0,2.0,78,0.00,,CLR,0.00,VWS V13.01,2013-09-14 03:25:00,
2013-09-13 23:30:00,68.4,61.6,29.84,North,360,1.0,3.0,79,0.00,,CLR,0.00,VWS V13.01,2013-09-14 03:30:00,
2013-09-13 23:35:00,68.3,61.5,29.85,NW,325,2.0,2.0,79,0.00,,CLR,0.00,VWS V13.01,2013-09-14 03:35:00,
2013-09-13 23:40:00,68.1,61.0,29.84,NNW,342,3.0,3.0,78,0.00,,CLR,0.00,VWS V13.01,2013-09-14 03:40:00,
2013-09-13 23:45:00,68.0,60.9,29.84,NW,311,2.0,2.0,78,0.00,,CLR,0.00,VWS V13.01,2013-09-14 03:45:00,
2013-09-13 23:50:00,67.9,60.8,29.85,NNW,347,1.0,4.0,78,0.00,,CLR,0.00,VWS V13.01,2013-09-14 03:50:00,
2013-09-13 23:55:00,67.7,60.6,29.85,NW,326,1.0,2.0,78,0.00,,CLR,0.00,VWS V13.01,2013-09-14 03:55:00,